TimeCDT,TemperatureF,Dew PointF,Humidity,Sea Level PressureIn,VisibilityMPH,Wind Direction,Wind SpeedMPH,Gust SpeedMPH,PrecipitationIn,Events,Conditions,WindDirDegrees,DateUTC
12:11 AM,33.8,28.4,81,29.91,10.0,WSW,3.5,-,0.01,Rain,Rain,240,2012-10-11 05:11:00
12:31 AM,33.8,28.4,81,29.91,7.0,WSW,3.5,-,0.02,Rain,Rain,240,2012-10-11 05:31:00
12:52 AM,33.8,28.4,81,29.90,5.0,Calm,Calm,-,0.04,Rain,Rain,0,2012-10-11 05:52:00
1:11 AM,32.0,28.4,87,29.89,5.0,Calm,Calm,-,0.01,Rain,Rain,0,2012-10-11 06:11:00
1:31 AM,32.0,26.6,80,29.88,3.0,Calm,Calm,-,0.03,,Overcast,0,2012-10-11 06:31:00
1:52 AM,32.0,26.6,80,29.87,4.0,Calm,Calm,-,0.04,Rain,Light Rain,0,2012-10-11 06:52:00
2:31 AM,32.0,26.6,80,29.86,7.0,Calm,Calm,-,N/A,Rain,Light Rain,0,2012-10-11 07:31:00
2:52 AM,32.0,28.4,87,29.86,10.0,Calm,Calm,-,0.01,,Drizzle,0,2012-10-11 07:52:00
3:11 AM,33.8,28.4,81,29.86,10.0,Calm,Calm,-,N/A,Rain,Light Rain,0,2012-10-11 08:11:00
3:31 AM,33.8,28.4,81,29.86,10.0,Calm,Calm,-,N/A,,Overcast,0,2012-10-11 08:31:00
3:52 AM,33.8,28.4,81,29.87,10.0,Calm,Calm,-,N/A,,Light Drizzle,0,2012-10-11 08:52:00
4:11 AM,33.8,28.4,81,29.87,10.0,Calm,Calm,-,N/A,,Overcast,0,2012-10-11 09:11:00
4:31 AM,33.8,28.4,81,29.88,10.0,Calm,Calm,-,N/A,,Overcast,0,2012-10-11 09:31:00
4:52 AM,33.8,28.4,81,29.88,10.0,NW,3.5,-,N/A,,Overcast,320,2012-10-11 09:52:00
5:31 AM,33.8,28.4,81,29.89,10.0,Calm,Calm,-,N/A,,Scattered Clouds,0,2012-10-11 10:31:00
5:52 AM,33.8,28.4,81,29.90,10.0,Calm,Calm,-,N/A,,Scattered Clouds,0,2012-10-11 10:52:00
6:11 AM,33.8,28.4,81,29.90,10.0,WNW,3.5,-,N/A,,Scattered Clouds,300,2012-10-11 11:11:00
6:31 AM,33.8,28.4,81,29.91,10.0,WNW,4.6,-,N/A,,Scattered Clouds,300,2012-10-11 11:31:00
6:52 AM,33.8,28.4,81,29.91,10.0,NW,4.6,-,N/A,,Clear,310,2012-10-11 11:52:00
7:31 AM,33.8,28.4,81,29.93,10.0,WNW,5.8,-,N/A,,Scattered Clouds,300,2012-10-11 12:31:00
7:52 AM,33.8,28.4,81,29.94,10.0,WNW,5.8,-,N/A,,Scattered Clouds,300,2012-10-11 12:52:00
8:11 AM,33.8,28.4,81,29.95,10.0,WNW,5.8,-,N/A,,Scattered Clouds,290,2012-10-11 13:11:00
8:31 AM,33.8,28.4,81,29.96,10.0,WNW,5.8,-,N/A,,Mostly Cloudy,300,2012-10-11 13:31:00
8:52 AM,35.6,28.4,75,29.96,10.0,WNW,5.8,-,N/A,,Mostly Cloudy,300,2012-10-11 13:52:00
9:31 AM,35.6,28.4,75,29.98,10.0,WNW,11.5,17.3,N/A,,Clear,300,2012-10-11 14:31:00
9:52 AM,35.6,26.6,70,29.99,10.0,WNW,10.4,25.3,N/A,,Scattered Clouds,300,2012-10-11 14:52:00
10:11 AM,35.6,26.6,70,30.01,10.0,NW,8.1,18.4,N/A,,Clear,310,2012-10-11 15:11:00
10:31 AM,37.4,28.4,70,30.02,10.0,West,10.4,-,N/A,,Scattered Clouds,280,2012-10-11 15:31:00
10:51 AM,35.6,26.6,70,30.04,10.0,WNW,10.4,23.0,N/A,,Mostly Cloudy,300,2012-10-11 15:51:00
11:12 AM,35.6,26.6,70,30.05,10.0,NW,9.2,20.7,N/A,,Overcast,310,2012-10-11 16:12:00
11:31 AM,37.4,26.6,65,30.05,10.0,WNW,12.7,23.0,N/A,,Mostly Cloudy,290,2012-10-11 16:31:00
11:51 AM,37.4,26.6,65,30.06,10.0,WNW,11.5,20.7,N/A,,Scattered Clouds,290,2012-10-11 16:51:00
12:11 PM,39.2,26.6,61,30.07,10.0,NW,10.4,18.4,N/A,,Mostly Cloudy,310,2012-10-11 17:11:00
12:32 PM,39.2,26.6,61,30.08,10.0,NW,13.8,20.7,N/A,,Mostly Cloudy,310,2012-10-11 17:32:00
12:51 PM,37.4,26.6,65,30.08,10.0,West,9.2,19.6,N/A,,Overcast,280,2012-10-11 17:51:00
1:12 PM,37.4,26.6,65,30.08,10.0,WNW,6.9,16.1,N/A,,Overcast,290,2012-10-11 18:12:00
1:31 PM,41.0,28.4,61,30.09,10.0,NW,11.5,20.7,N/A,,Overcast,310,2012-10-11 18:31:00
1:51 PM,39.2,26.6,61,30.09,10.0,WNW,11.5,17.3,N/A,,Overcast,290,2012-10-11 18:51:00
2:12 PM,39.2,26.6,61,30.10,10.0,WNW,12.7,25.3,N/A,,Mostly Cloudy,300,2012-10-11 19:12:00
2:31 PM,42.8,28.4,57,30.10,10.0,West,13.8,19.6,N/A,,Scattered Clouds,270,2012-10-11 19:31:00
3:12 PM,42.8,28.4,57,30.12,10.0,West,8.1,-,N/A,,Scattered Clouds,280,2012-10-11 20:12:00
3:31 PM,42.8,26.6,53,30.12,10.0,West,10.4,19.6,N/A,,Mostly Cloudy,270,2012-10-11 20:31:00
3:51 PM,42.8,26.6,53,30.13,10.0,West,6.9,21.9,N/A,,Overcast,280,2012-10-11 20:51:00
4:12 PM,42.8,26.6,53,30.13,10.0,NW,5.8,-,N/A,,Mostly Cloudy,310,2012-10-11 21:12:00
4:31 PM,39.2,26.6,61,30.15,10.0,NW,10.4,19.6,N/A,Rain,Light Rain,320,2012-10-11 21:31:00
4:51 PM,37.4,26.6,65,30.15,10.0,WNW,3.5,-,N/A,,Mostly Cloudy,300,2012-10-11 21:51:00
5:11 PM,39.2,26.6,61,30.15,10.0,Calm,Calm,-,N/A,,Scattered Clouds,0,2012-10-11 22:11:00
5:31 PM,41.0,24.8,53,30.17,10.0,WNW,12.7,18.4,N/A,,Mostly Cloudy,300,2012-10-11 22:31:00
6:31 PM,35.6,24.8,65,30.19,10.0,WNW,4.6,-,N/A,,Scattered Clouds,300,2012-10-11 23:31:00
6:52 PM,37.4,23.0,56,30.21,10.0,WNW,4.6,-,N/A,,Mostly Cloudy,300,2012-10-11 23:52:00
7:11 PM,37.4,23.0,56,30.22,10.0,WNW,6.9,-,N/A,,Mostly Cloudy,300,2012-10-12 00:11:00
7:31 PM,35.6,23.0,60,30.22,10.0,WNW,5.8,-,N/A,,Mostly Cloudy,290,2012-10-12 00:31:00
8:11 PM,35.6,21.2,56,30.24,10.0,West,4.6,-,N/A,,Scattered Clouds,280,2012-10-12 01:11:00
8:31 PM,35.6,21.2,56,30.25,10.0,West,3.5,-,N/A,,Scattered Clouds,280,2012-10-12 01:31:00
8:52 PM,33.8,21.2,60,30.25,10.0,WNW,3.5,-,N/A,,Scattered Clouds,290,2012-10-12 01:52:00
9:11 PM,32.0,21.2,64,30.26,10.0,Calm,Calm,-,N/A,,Clear,0,2012-10-12 02:11:00
10:11 PM,30.2,21.2,69,30.27,10.0,WNW,4.6,-,N/A,,Clear,290,2012-10-12 03:11:00
10:31 PM,30.2,21.2,69,30.28,10.0,WNW,4.6,-,N/A,,Clear,300,2012-10-12 03:31:00
11:11 PM,30.2,21.2,69,30.29,10.0,WNW,3.5,-,N/A,,Clear,300,2012-10-12 04:11:00
11:31 PM,30.2,21.2,69,30.30,10.0,WNW,4.6,-,N/A,,Clear,290,2012-10-12 04:31:00